カタログに戻る

FENGYUN 1C DEB

LostSSO
NORAD 31318·DEBRIS·🇨🇳 China

打ち上げ May 10, 1999 から Taiyuan Satellite Launch Center

Loading…

次のパス (今後24時間)

TLE

古いSource: Space-Track

元期: Nov 4, 2009, 01:31 UTC

1 31318U 99025BPW 09308.06340418 -.00000046  00000-0  00000-0 0  9998
2 31318  99.0189 326.0718 0105784 151.2041 209.5640 14.24254391133895

AllMySatでFENGYUN 1C DEBをリアルタイム追跡

Download on the App Store